START_TIME,STEP,MOV.,M15,t_acc.,M20,t_acc.
1986-01-25 18:00:45.270 ,6,0,0.,24.0,0.,24.0
1986-01-25 18:01:09.270 ,5,1,0.,24.0,0.,24.0
1986-01-25 18:01:33.270 ,5,0,0.,24.0,0.,24.0
1986-01-25 18:01:57.270 ,4,1,1.,24.0,0.,24.0
1986-01-25 18:02:21.270 ,4,0,0.,24.0,0.,24.0
1986-01-25 18:02:45.270 ,3,1,0.,24.0,0.,24.0
1986-01-25 18:03:09.270 ,3,0,0.,24.0,0.,24.0
1986-01-25 18:03:33.270 ,2,1,0.,24.0,0.,24.0
1986-01-25 18:03:57.270 ,2,0,0.,24.0,0.,24.0
1986-01-25 18:04:21.270 ,1,1,0.,24.0,0.,24.0
1986-01-25 18:04:45.270 ,1,0,1.,24.0,0.,24.0
1986-01-25 18:05:09.270 ,0,1,1.,24.0,0.,24.0
1986-01-25 18:05:33.270 ,0,0,2.,24.0,0.,24.0
1986-01-25 18:05:57.270 ,0,1,0.,24.0,0.,24.0
1986-01-25 18:06:21.270 ,0,0,0.,24.0,0.,24.0
1986-01-25 18:06:45.270 ,1,1,1.,24.0,0.,24.0
1986-01-25 18:07:09.270 ,1,0,0.,24.0,0.,24.0
1986-01-25 18:07:33.270 ,2,1,0.,24.0,0.,24.0
1986-01-25 18:07:57.270 ,2,0,0.,24.0,0.,24.0
1986-01-25 18:08:21.270 ,3,1,0.,24.0,0.,24.0
1986-01-25 18:08:45.270 ,3,0,0.,24.0,0.,24.0
1986-01-25 18:09:09.270 ,4,1,0.,24.0,0.,24.0
1986-01-25 18:09:33.270 ,4,0,0.,24.0,0.,24.0
1986-01-25 18:09:57.270 ,5,1,0.,24.0,0.,24.0
1986-01-25 18:10:21.270 ,5,0,0.,24.0,0.,24.0
1986-01-25 18:10:45.270 ,6,1,0.,24.0,0.,24.0
1986-01-25 18:11:09.270 ,6,0,0.,24.0,0.,24.0
1986-01-25 18:11:33.270 ,7,1,0.,24.0,0.,24.0
1986-01-25 18:11:57.270 ,7,0,0.,24.0,0.,24.0
1986-01-25 18:12:21.270 ,7,1,0.,24.0,0.,24.0
1986-01-25 18:12:45.270 ,7,0,0.,24.0,0.,24.0
1986-01-25 18:13:09.270 ,6,1,0.,24.0,0.,24.0
1986-01-25 18:13:33.270 ,6,0,0.,24.0,0.,24.0
1986-01-25 18:13:57.270 ,5,1,0.,24.0,0.,24.0
1986-01-25 18:14:21.270 ,5,0,1.,24.0,0.,24.0
1986-01-25 18:14:45.270 ,4,1,0.,24.0,0.,24.0
1986-01-25 18:15:09.270 ,4,0,0.,24.0,0.,24.0
1986-01-25 18:15:33.270 ,3,1,0.,24.0,0.,24.0
1986-01-25 18:15:57.270 ,3,0,0.,24.0,0.,24.0
1986-01-25 18:16:21.270 ,2,1,0.,24.0,0.,24.0
1986-01-25 18:16:45.270 ,2,0,0.,24.0,0.,24.0
1986-01-25 18:17:09.270 ,1,1,0.,24.0,0.,24.0
1986-01-25 18:17:33.270 ,1,0,0.,24.0,0.,24.0
1986-01-25 18:17:57.270 ,0,1,0.,24.0,0.,24.0
1986-01-25 18:18:21.270 ,0,0,1.,24.0,0.,24.0
1986-01-25 18:18:45.270 ,0,1,0.,24.0,0.,24.0
1986-01-25 18:19:09.270 ,0,0,0.,24.0,0.,24.0
1986-01-25 18:19:33.270 ,1,1,0.,24.0,0.,24.0
1986-01-25 18:19:57.270 ,1,0,1.,24.0,0.,24.0
1986-01-25 18:20:21.270 ,2,1,0.,24.0,0.,24.0
1986-01-25 18:20:45.270 ,2,0,0.,24.0,0.,24.0
1986-01-25 18:21:09.270 ,3,1,0.,24.0,0.,24.0
1986-01-25 18:21:33.270 ,3,0,0.,24.0,0.,24.0
1986-01-25 18:21:57.270 ,4,1,0.,24.0,0.,24.0
1986-01-25 18:22:21.270 ,4,0,0.,24.0,0.,24.0
1986-01-25 18:22:45.270 ,5,1,0.,24.0,0.,24.0
1986-01-25 18:23:09.270 ,5,0,0.,24.0,0.,24.0
1986-01-25 18:23:33.270 ,6,1,0.,24.0,0.,24.0
1986-01-25 18:23:57.270 ,6,0,0.,24.0,0.,24.0
1986-01-25 18:24:21.270 ,7,1,1.,24.0,0.,24.0
1986-01-25 18:24:45.270 ,7,0,0.,24.0,0.,24.0
1986-01-25 18:25:09.270 ,7,1,0.,24.0,0.,24.0
1986-01-25 18:25:33.270 ,7,0,0.,24.0,0.,24.0
1986-01-25 18:25:57.270 ,6,1,1.,24.0,0.,24.0
1986-01-25 18:26:21.270 ,6,0,0.,24.0,0.,24.0
1986-01-25 18:26:45.270 ,5,1,0.,24.0,0.,24.0
1986-01-25 18:27:09.270 ,5,0,0.,24.0,0.,24.0
1986-01-25 18:27:33.270 ,4,1,0.,24.0,0.,24.0
1986-01-25 18:27:57.270 ,4,0,0.,24.0,0.,24.0
1986-01-25 18:28:21.270 ,3,1,0.,24.0,0.,24.0
1986-01-25 18:28:45.270 ,3,0,0.,24.0,0.,24.0
1986-01-25 18:29:09.270 ,2,1,1.,24.0,0.,24.0
1986-01-25 18:29:33.270 ,2,0,0.,24.0,0.,24.0
1986-01-25 18:29:57.270 ,1,1,0.,24.0,0.,24.0
1986-01-25 18:30:21.270 ,1,0,0.,24.0,0.,24.0
1986-01-25 18:30:45.270 ,0,1,1.,24.0,0.,24.0
1986-01-25 18:31:09.270 ,0,0,0.,24.0,0.,24.0
1986-01-25 18:31:33.270 ,0,1,0.,24.0,0.,24.0
1986-01-25 18:31:57.270 ,0,0,0.,24.0,0.,24.0
1986-01-25 18:32:21.270 ,1,1,0.,24.0,0.,24.0
1986-01-25 18:32:45.270 ,1,0,0.,24.0,0.,24.0
1986-01-25 18:33:09.270 ,2,1,0.,24.0,0.,24.0
1986-01-25 18:33:33.270 ,2,0,0.,24.0,0.,24.0
1986-01-25 18:33:57.260 ,3,1,1.,24.0,0.,24.0
1986-01-25 18:34:21.260 ,3,0,0.,24.0,0.,24.0
1986-01-25 18:34:45.260 ,4,1,0.,24.0,0.,24.0
1986-01-25 18:35:09.260 ,4,0,1.,24.0,0.,24.0
1986-01-25 18:35:33.260 ,5,1,0.,24.0,0.,24.0
1986-01-25 18:35:57.260 ,5,0,0.,24.0,0.,24.0
1986-01-25 18:36:21.260 ,6,1,0.,24.0,0.,24.0
1986-01-25 18:36:45.260 ,6,0,0.,24.0,0.,24.0
1986-01-25 18:37:09.260 ,7,1,0.,24.0,0.,24.0
1986-01-25 18:37:33.260 ,7,0,0.,24.0,0.,24.0
1986-01-25 18:37:57.260 ,7,1,0.,24.0,0.,24.0
1986-01-25 18:38:21.260 ,7,0,0.,24.0,0.,24.0
1986-01-25 18:38:45.260 ,6,1,0.,24.0,0.,24.0
1986-01-25 18:39:09.260 ,6,0,0.,24.0,0.,24.0
1986-01-25 18:39:33.260 ,5,1,0.,24.0,0.,24.0
1986-01-25 18:39:57.260 ,5,0,0.,24.0,0.,24.0
1986-01-25 18:40:21.260 ,4,1,0.,24.0,0.,24.0
1986-01-25 18:40:45.260 ,4,0,0.,24.0,0.,24.0
1986-01-25 18:41:09.260 ,3,1,0.,24.0,0.,24.0
1986-01-25 18:41:33.260 ,3,0,0.,24.0,0.,24.0
1986-01-25 18:41:57.260 ,2,1,0.,24.0,0.,24.0
1986-01-25 18:42:21.260 ,2,0,0.,24.0,0.,24.0
1986-01-25 18:42:45.260 ,1,1,0.,24.0,0.,24.0
1986-01-25 18:43:09.260 ,1,0,0.,24.0,0.,24.0
1986-01-25 18:43:33.260 ,0,1,0.,24.0,0.,24.0
1986-01-25 18:43:57.260 ,0,0,0.,24.0,0.,24.0
1986-01-25 18:44:21.260 ,0,1,0.,24.0,0.,24.0
1986-01-25 18:44:45.260 ,0,0,0.,24.0,0.,24.0
1986-01-25 18:45:09.260 ,1,1,0.,24.0,0.,24.0
1986-01-25 18:45:33.260 ,1,0,0.,24.0,0.,24.0
1986-01-25 18:45:57.260 ,2,1,0.,24.0,0.,24.0
1986-01-25 18:46:21.260 ,2,0,0.,24.0,0.,24.0
1986-01-25 18:46:45.260 ,3,1,0.,24.0,0.,24.0
1986-01-25 18:47:09.260 ,3,0,0.,24.0,0.,24.0
1986-01-25 18:47:33.260 ,4,1,0.,24.0,0.,24.0
1986-01-25 18:47:57.260 ,4,0,0.,24.0,0.,24.0
1986-01-25 18:48:21.260 ,5,1,1.,24.0,0.,24.0
1986-01-25 18:48:45.260 ,5,0,0.,24.0,0.,24.0
1986-01-25 18:49:09.260 ,6,1,0.,24.0,0.,24.0
1986-01-25 18:49:33.260 ,6,0,0.,24.0,0.,24.0
1986-01-25 18:49:57.260 ,7,1,0.,24.0,0.,24.0
1986-01-25 18:50:21.260 ,7,0,0.,24.0,0.,24.0
1986-01-25 18:50:45.260 ,7,1,0.,24.0,0.,24.0
1986-01-25 18:51:09.260 ,7,0,0.,24.0,0.,24.0
1986-01-25 18:51:33.260 ,6,1,0.,24.0,0.,24.0
1986-01-25 18:51:57.260 ,6,0,1.,24.0,0.,24.0
1986-01-25 18:52:21.260 ,5,1,0.,24.0,0.,24.0
1986-01-25 18:52:45.260 ,5,0,0.,24.0,0.,24.0
1986-01-25 18:53:09.260 ,4,1,0.,24.0,0.,24.0
1986-01-25 18:53:33.260 ,4,0,0.,24.0,0.,24.0
1986-01-25 18:53:57.260 ,3,1,1.,24.0,0.,24.0
1986-01-25 18:54:21.260 ,3,0,0.,24.0,0.,24.0
1986-01-25 18:54:45.260 ,2,1,0.,24.0,0.,24.0
1986-01-25 18:55:09.260 ,2,0,1.,24.0,0.,24.0
1986-01-25 18:55:33.260 ,1,1,0.,24.0,0.,24.0
1986-01-25 18:55:57.260 ,1,0,0.,24.0,0.,24.0
1986-01-25 18:56:21.260 ,0,1,0.,24.0,0.,24.0
1986-01-25 18:56:45.260 ,0,0,0.,24.0,0.,24.0
1986-01-25 18:57:09.260 ,0,1,0.,24.0,0.,24.0
1986-01-25 18:57:33.260 ,0,0,0.,24.0,0.,24.0
1986-01-25 18:57:57.260 ,1,1,0.,24.0,0.,24.0
1986-01-25 18:58:21.260 ,1,0,0.,24.0,0.,24.0
1986-01-25 18:58:45.260 ,2,1,0.,24.0,0.,24.0
1986-01-25 18:59:09.260 ,2,0,0.,24.0,0.,24.0
1986-01-25 18:59:33.260 ,3,1,0.,24.0,0.,24.0
1986-01-25 18:59:57.260 ,3,0,0.,24.0,0.,24.0
1986-01-25 19:00:21.260 ,4,1,0.,24.0,0.,24.0
1986-01-25 19:00:45.260 ,4,0,0.,24.0,0.,24.0
1986-01-25 19:01:09.260 ,5,1,0.,24.0,0.,24.0
1986-01-25 19:01:33.260 ,5,0,1.,24.0,0.,24.0
1986-01-25 19:01:57.260 ,6,1,0.,24.0,0.,24.0
1986-01-25 19:02:21.260 ,6,0,0.,24.0,0.,24.0
1986-01-25 19:02:45.260 ,7,1,0.,24.0,0.,24.0
1986-01-25 19:03:09.260 ,7,0,0.,24.0,0.,24.0
1986-01-25 19:03:33.260 ,7,1,0.,24.0,0.,24.0
1986-01-25 19:03:57.260 ,7,0,1.,24.0,0.,24.0
1986-01-25 19:04:21.260 ,6,1,0.,24.0,0.,24.0
1986-01-25 19:04:45.260 ,6,0,0.,24.0,0.,24.0
1986-01-25 19:05:09.260 ,5,1,0.,24.0,0.,24.0
1986-01-25 19:05:33.260 ,5,0,0.,24.0,0.,24.0
1986-01-25 19:05:57.260 ,4,1,0.,24.0,0.,24.0
1986-01-25 19:06:21.260 ,4,0,0.,24.0,0.,24.0
1986-01-25 19:06:45.260 ,3,1,0.,24.0,0.,24.0
1986-01-25 19:07:09.260 ,3,0,0.,24.0,0.,24.0
1986-01-25 19:07:33.260 ,2,1,0.,24.0,0.,24.0
1986-01-25 19:07:57.260 ,2,0,0.,24.0,0.,24.0
1986-01-25 19:08:21.260 ,1,1,0.,24.0,0.,24.0
1986-01-25 19:08:45.260 ,1,0,0.,24.0,0.,24.0
1986-01-25 19:09:09.260 ,0,1,0.,24.0,0.,24.0
1986-01-25 19:09:33.260 ,0,0,0.,24.0,0.,24.0
1986-01-25 19:09:57.260 ,0,1,0.,24.0,0.,24.0
1986-01-25 19:10:21.260 ,0,0,1.,24.0,0.,24.0
1986-01-25 19:10:45.260 ,1,1,0.,24.0,0.,24.0
1986-01-25 19:11:09.260 ,1,0,0.,24.0,0.,24.0
1986-01-25 19:11:33.260 ,2,1,0.,24.0,0.,24.0
1986-01-25 19:11:57.260 ,2,0,0.,24.0,0.,24.0
1986-01-25 19:12:21.260 ,3,1,0.,24.0,0.,24.0
1986-01-25 19:12:45.260 ,3,0,1.,24.0,0.,24.0
1986-01-25 19:13:09.260 ,4,1,0.,24.0,0.,24.0
1986-01-25 19:13:33.260 ,4,0,0.,24.0,0.,24.0
1986-01-25 19:13:57.260 ,5,1,1.,24.0,0.,24.0
1986-01-25 19:14:21.260 ,5,0,0.,24.0,0.,24.0
1986-01-25 19:14:45.260 ,6,1,0.,24.0,0.,24.0
1986-01-25 19:15:09.260 ,6,0,0.,24.0,0.,24.0
1986-01-25 19:15:33.260 ,7,1,0.,24.0,0.,24.0
1986-01-25 19:15:57.260 ,7,0,0.,24.0,0.,24.0
1986-01-25 19:16:21.260 ,7,1,1.,24.0,0.,24.0
1986-01-25 19:16:45.260 ,7,0,0.,24.0,0.,24.0
1986-01-25 19:17:09.260 ,6,1,0.,24.0,0.,24.0
1986-01-25 19:17:33.260 ,6,0,0.,24.0,0.,24.0
1986-01-25 19:17:57.260 ,5,1,0.,24.0,0.,24.0
1986-01-25 19:18:21.260 ,5,0,0.,24.0,0.,24.0
1986-01-25 19:18:45.260 ,4,1,0.,24.0,0.,24.0
1986-01-25 19:19:09.260 ,4,0,0.,24.0,0.,24.0
1986-01-25 19:19:33.260 ,3,1,0.,24.0,0.,24.0
1986-01-25 19:19:57.260 ,3,0,1.,24.0,0.,24.0
1986-01-25 19:20:21.260 ,2,1,0.,24.0,0.,24.0
1986-01-25 19:20:45.260 ,2,0,0.,24.0,0.,24.0
1986-01-25 19:21:09.260 ,1,1,0.,24.0,0.,24.0
1986-01-25 19:21:33.260 ,1,0,0.,24.0,0.,24.0
1986-01-25 19:21:57.260 ,0,1,1.,24.0,0.,24.0
1986-01-25 19:22:21.260 ,0,0,0.,24.0,0.,24.0
1986-01-25 19:22:45.260 ,0,1,1.,24.0,0.,24.0
1986-01-25 19:23:09.260 ,0,0,0.,24.0,0.,24.0
1986-01-25 19:23:33.260 ,1,1,1.,24.0,0.,24.0
1986-01-25 19:23:57.260 ,1,0,0.,24.0,0.,24.0
1986-01-25 19:24:21.260 ,2,1,0.,24.0,0.,24.0
1986-01-25 19:24:45.260 ,2,0,1.,24.0,0.,24.0
1986-01-25 19:25:09.260 ,3,1,0.,24.0,0.,24.0
1986-01-25 19:25:33.260 ,3,0,0.,24.0,0.,24.0
1986-01-25 19:25:57.260 ,4,1,0.,24.0,0.,24.0
1986-01-25 19:26:21.260 ,4,0,0.,24.0,0.,24.0
1986-01-25 19:26:45.260 ,5,1,0.,24.0,0.,24.0
1986-01-25 19:27:09.260 ,5,0,0.,24.0,0.,24.0
1986-01-25 19:27:33.260 ,6,1,0.,24.0,0.,24.0
1986-01-25 19:27:57.260 ,6,0,0.,24.0,0.,24.0
1986-01-25 19:28:21.260 ,7,1,0.,24.0,0.,24.0
1986-01-25 19:28:45.260 ,7,0,0.,24.0,0.,24.0
1986-01-25 19:29:09.260 ,7,1,0.,24.0,0.,24.0
1986-01-25 19:29:33.260 ,7,0,0.,24.0,0.,24.0
1986-01-25 19:29:57.260 ,6,1,0.,24.0,0.,24.0
1986-01-25 19:30:21.260 ,6,0,0.,24.0,0.,24.0
1986-01-25 19:30:45.260 ,5,1,0.,24.0,0.,24.0
1986-01-25 19:31:09.260 ,5,0,0.,24.0,0.,24.0
1986-01-25 19:31:33.260 ,4,1,1.,24.0,0.,24.0
1986-01-25 19:31:57.260 ,4,0,1.,24.0,0.,24.0
1986-01-25 19:32:21.260 ,3,1,0.,24.0,0.,24.0
1986-01-25 19:32:45.260 ,3,0,0.,24.0,0.,24.0
1986-01-25 19:33:09.260 ,2,1,0.,24.0,0.,24.0
1986-01-25 19:33:33.260 ,2,0,0.,24.0,0.,24.0
1986-01-25 19:33:57.260 ,1,1,0.,24.0,0.,24.0
1986-01-25 19:34:21.260 ,1,0,0.,24.0,0.,24.0
1986-01-25 19:34:45.260 ,0,1,0.,24.0,0.,24.0
1986-01-25 19:35:09.260 ,0,0,0.,24.0,0.,24.0
1986-01-25 19:35:33.260 ,0,1,0.,24.0,0.,24.0
1986-01-25 19:35:57.260 ,0,0,0.,24.0,0.,24.0
1986-01-25 19:36:21.260 ,1,1,0.,24.0,0.,24.0
1986-01-25 19:36:45.260 ,1,0,0.,24.0,0.,24.0
1986-01-25 19:37:09.260 ,2,1,0.,24.0,0.,24.0
1986-01-25 19:37:33.260 ,2,0,1.,24.0,0.,24.0
1986-01-25 19:37:57.260 ,3,1,0.,24.0,0.,24.0
1986-01-25 19:38:21.260 ,3,0,0.,24.0,0.,24.0
1986-01-25 19:38:45.260 ,4,1,0.,24.0,0.,24.0
1986-01-25 19:39:09.260 ,4,0,0.,24.0,0.,24.0
1986-01-25 19:39:33.260 ,5,1,0.,24.0,0.,24.0
1986-01-25 19:39:57.260 ,5,0,0.,24.0,0.,24.0
1986-01-25 19:40:21.260 ,6,1,0.,24.0,0.,24.0
1986-01-25 19:40:45.260 ,6,0,0.,24.0,0.,24.0
1986-01-25 19:41:09.260 ,7,1,0.,24.0,0.,24.0
1986-01-25 19:41:33.260 ,7,0,0.,24.0,0.,24.0
1986-01-25 19:41:57.260 ,7,1,0.,24.0,0.,24.0
1986-01-25 19:42:21.260 ,7,0,0.,24.0,0.,24.0
1986-01-25 19:42:45.260 ,6,1,0.,24.0,0.,24.0
1986-01-25 19:43:09.260 ,6,0,0.,24.0,0.,24.0
1986-01-25 19:43:33.260 ,5,1,0.,24.0,0.,24.0
1986-01-25 19:43:57.260 ,5,0,0.,24.0,0.,24.0
1986-01-25 19:44:21.260 ,4,1,0.,24.0,0.,24.0
1986-01-25 19:44:45.260 ,4,0,0.,24.0,0.,24.0
1986-01-25 19:45:09.260 ,3,1,0.,24.0,0.,24.0
1986-01-25 19:45:33.260 ,3,0,0.,24.0,0.,24.0
1986-01-25 19:45:57.260 ,2,1,0.,24.0,0.,24.0
1986-01-25 19:46:21.260 ,2,0,0.,24.0,0.,24.0
1986-01-25 19:46:45.260 ,1,1,0.,24.0,0.,24.0
1986-01-25 19:47:09.260 ,1,0,0.,24.0,0.,24.0
1986-01-25 19:47:33.260 ,0,1,0.,24.0,0.,24.0
1986-01-25 19:47:57.260 ,0,0,0.,24.0,0.,24.0
1986-01-25 19:48:21.260 ,0,1,0.,24.0,0.,24.0
1986-01-25 19:48:45.260 ,0,0,0.,24.0,0.,24.0
1986-01-25 19:49:09.260 ,1,1,0.,24.0,0.,24.0
1986-01-25 19:49:33.260 ,1,0,0.,24.0,0.,24.0
1986-01-25 19:49:57.260 ,2,1,0.,24.0,0.,24.0
1986-01-25 19:50:21.260 ,2,0,0.,24.0,0.,24.0
1986-01-25 19:50:45.260 ,3,1,0.,24.0,0.,24.0
1986-01-25 19:51:09.260 ,3,0,0.,24.0,0.,24.0
1986-01-25 19:51:33.260 ,4,1,0.,24.0,0.,24.0
1986-01-25 19:51:57.260 ,4,0,1.,24.0,0.,24.0
1986-01-25 19:52:21.260 ,5,1,0.,24.0,0.,24.0
1986-01-25 19:52:45.260 ,5,0,0.,24.0,0.,24.0
1986-01-25 19:53:09.260 ,6,1,0.,24.0,0.,24.0
1986-01-25 19:53:33.260 ,6,0,0.,24.0,0.,24.0
1986-01-25 19:53:57.260 ,7,1,0.,24.0,0.,24.0
1986-01-25 19:54:21.260 ,7,0,0.,24.0,0.,24.0
1986-01-25 19:54:45.260 ,7,1,0.,24.0,0.,24.0
1986-01-25 19:55:09.260 ,7,0,0.,24.0,0.,24.0
1986-01-25 19:55:33.260 ,6,1,0.,24.0,0.,24.0
1986-01-25 19:55:57.260 ,6,0,0.,24.0,0.,24.0
1986-01-25 19:56:21.260 ,5,1,0.,24.0,0.,24.0
1986-01-25 19:56:45.260 ,5,0,1.,24.0,0.,24.0
1986-01-25 19:57:09.260 ,4,1,0.,24.0,0.,24.0
1986-01-25 19:57:33.260 ,4,0,0.,24.0,0.,24.0
1986-01-25 19:57:57.260 ,3,1,0.,24.0,0.,24.0
1986-01-25 19:58:21.260 ,3,0,0.,24.0,0.,24.0
1986-01-25 19:58:45.260 ,2,1,0.,24.0,0.,24.0
1986-01-25 19:59:09.260 ,2,0,0.,24.0,0.,24.0
1986-01-25 19:59:33.260 ,1,1,0.,24.0,0.,24.0
1986-01-25 19:59:57.260 ,1,0,0.,24.0,0.,24.0
1986-01-25 20:00:21.260 ,0,1,0.,24.0,0.,24.0
1986-01-25 20:00:45.260 ,0,0,0.,24.0,0.,24.0
1986-01-25 20:01:09.260 ,0,1,0.,24.0,0.,24.0
1986-01-25 20:01:33.260 ,0,0,0.,24.0,0.,24.0
1986-01-25 20:01:57.260 ,1,1,0.,24.0,0.,24.0
1986-01-25 20:02:21.260 ,1,0,0.,24.0,0.,24.0
1986-01-25 20:02:45.260 ,2,1,0.,24.0,0.,24.0
1986-01-25 20:03:09.260 ,2,0,0.,24.0,0.,24.0
1986-01-25 20:03:33.260 ,3,1,0.,24.0,0.,24.0
1986-01-25 20:03:57.260 ,3,0,0.,24.0,0.,24.0
1986-01-25 20:04:21.260 ,4,1,0.,24.0,0.,24.0
1986-01-25 20:04:45.260 ,4,0,0.,24.0,0.,24.0
1986-01-25 20:05:09.260 ,5,1,1.,24.0,0.,24.0
1986-01-25 20:05:33.260 ,5,0,0.,24.0,0.,24.0
1986-01-25 20:05:57.260 ,6,1,0.,24.0,0.,24.0
1986-01-25 20:06:21.260 ,6,0,0.,24.0,0.,24.0
1986-01-25 20:06:45.260 ,7,1,0.,24.0,0.,24.0
1986-01-25 20:07:09.260 ,7,0,0.,24.0,0.,24.0
1986-01-25 20:07:33.260 ,7,1,0.,24.0,0.,24.0
1986-01-25 20:07:57.260 ,7,0,1.,24.0,0.,24.0
1986-01-25 20:08:21.260 ,6,1,0.,24.0,0.,24.0
1986-01-25 20:08:45.260 ,6,0,0.,24.0,0.,24.0
1986-01-25 20:09:09.260 ,5,1,0.,24.0,0.,24.0
1986-01-25 20:09:33.260 ,5,0,0.,24.0,0.,24.0
1986-01-25 20:09:57.260 ,4,1,1.,24.0,0.,24.0
1986-01-25 20:10:21.260 ,4,0,0.,24.0,0.,24.0
1986-01-25 20:10:45.260 ,3,1,1.,24.0,0.,24.0
1986-01-25 20:11:09.260 ,3,0,0.,24.0,0.,24.0
1986-01-25 20:11:33.260 ,2,1,0.,24.0,0.,24.0
1986-01-25 20:11:57.260 ,2,0,0.,24.0,0.,24.0
1986-01-25 20:12:21.260 ,1,1,0.,24.0,0.,24.0
1986-01-25 20:12:45.260 ,1,0,0.,24.0,0.,24.0
1986-01-25 20:13:09.260 ,0,1,0.,24.0,0.,24.0
1986-01-25 20:13:33.260 ,0,0,0.,24.0,0.,24.0
1986-01-25 20:13:57.260 ,0,1,0.,24.0,0.,24.0
1986-01-25 20:14:21.260 ,0,0,2.,24.0,0.,24.0
1986-01-25 20:14:45.260 ,1,1,0.,24.0,0.,24.0
1986-01-25 20:15:09.260 ,1,0,1.,24.0,0.,24.0
1986-01-25 20:15:33.260 ,2,1,0.,24.0,0.,24.0
1986-01-25 20:15:57.260 ,2,0,0.,24.0,0.,24.0
1986-01-25 20:16:21.260 ,3,1,0.,24.0,0.,24.0
1986-01-25 20:16:45.260 ,3,0,0.,24.0,0.,24.0
1986-01-25 20:17:09.260 ,4,1,0.,24.0,0.,24.0
1986-01-25 20:17:33.260 ,4,0,0.,24.0,0.,24.0
1986-01-25 20:17:57.260 ,5,1,0.,24.0,0.,24.0
1986-01-25 20:18:21.260 ,5,0,0.,24.0,0.,24.0
1986-01-25 20:18:45.260 ,6,1,0.,24.0,0.,24.0
1986-01-25 20:19:09.260 ,6,0,0.,24.0,0.,24.0
1986-01-25 20:19:33.260 ,7,1,0.,24.0,0.,24.0
1986-01-25 20:19:57.260 ,7,0,0.,24.0,0.,24.0
1986-01-25 20:20:21.260 ,7,1,0.,24.0,0.,24.0
1986-01-25 20:20:45.260 ,7,0,0.,24.0,0.,24.0
1986-01-25 20:21:09.260 ,6,1,0.,24.0,0.,24.0
1986-01-25 20:21:33.260 ,6,0,0.,24.0,0.,24.0
1986-01-25 20:21:57.260 ,5,1,1.,24.0,0.,24.0
1986-01-25 20:22:21.260 ,5,0,0.,24.0,0.,24.0
1986-01-25 20:22:45.260 ,4,1,0.,24.0,0.,24.0
1986-01-25 20:23:09.260 ,4,0,1.,24.0,0.,24.0
1986-01-25 20:23:33.260 ,3,1,0.,24.0,0.,24.0
1986-01-25 20:23:57.260 ,3,0,0.,24.0,0.,24.0
1986-01-25 20:24:21.260 ,2,1,0.,24.0,0.,24.0
1986-01-25 20:24:45.260 ,2,0,0.,24.0,0.,24.0
1986-01-25 20:25:09.260 ,1,1,0.,24.0,0.,24.0
1986-01-25 20:25:33.260 ,1,0,0.,24.0,0.,24.0
1986-01-25 20:25:57.260 ,0,1,0.,24.0,0.,24.0
1986-01-25 20:26:21.260 ,0,0,0.,24.0,0.,24.0
1986-01-25 20:26:45.260 ,0,1,0.,24.0,0.,24.0
1986-01-25 20:27:09.260 ,0,0,1.,24.0,0.,24.0
1986-01-25 20:27:33.260 ,1,1,0.,24.0,0.,24.0
1986-01-25 20:27:57.260 ,1,0,0.,24.0,0.,24.0
1986-01-25 20:28:21.260 ,2,1,0.,24.0,0.,24.0
1986-01-25 20:28:45.260 ,2,0,0.,24.0,0.,24.0
1986-01-25 20:29:09.260 ,3,1,1.,24.0,0.,24.0
1986-01-25 20:29:33.260 ,3,0,0.,24.0,0.,24.0
1986-01-25 20:29:57.260 ,4,1,0.,24.0,0.,24.0
1986-01-25 20:30:21.260 ,4,0,0.,24.0,0.,24.0
1986-01-25 20:30:45.260 ,5,1,0.,24.0,0.,24.0
1986-01-25 20:31:09.260 ,5,0,0.,24.0,0.,24.0
1986-01-25 20:31:33.260 ,6,1,0.,24.0,0.,24.0
1986-01-25 20:31:57.260 ,6,0,0.,24.0,0.,24.0
1986-01-25 20:32:21.260 ,7,1,0.,24.0,0.,24.0
1986-01-25 20:32:45.260 ,7,0,0.,24.0,0.,24.0
1986-01-25 20:33:09.260 ,7,1,0.,24.0,0.,24.0
1986-01-25 20:33:33.260 ,7,0,0.,24.0,0.,24.0
1986-01-25 20:33:57.260 ,6,1,0.,24.0,0.,24.0
1986-01-25 20:34:21.260 ,6,0,0.,24.0,0.,24.0
1986-01-25 20:34:45.260 ,5,1,0.,24.0,0.,24.0
1986-01-25 20:35:09.260 ,5,0,0.,24.0,0.,24.0
1986-01-25 20:35:33.260 ,4,1,0.,24.0,0.,24.0
1986-01-25 20:35:57.260 ,4,0,0.,24.0,0.,24.0
1986-01-25 20:36:21.260 ,3,1,0.,24.0,0.,24.0
1986-01-25 20:36:45.260 ,3,0,0.,24.0,0.,24.0
1986-01-25 20:37:09.260 ,2,1,0.,24.0,0.,24.0
1986-01-25 20:37:33.260 ,2,0,0.,24.0,0.,24.0
1986-01-25 20:37:57.260 ,1,1,0.,24.0,0.,24.0
1986-01-25 20:38:21.260 ,1,0,0.,24.0,0.,24.0
1986-01-25 20:38:45.260 ,0,1,0.,24.0,0.,24.0
1986-01-25 20:39:09.260 ,0,0,0.,24.0,0.,24.0
1986-01-25 20:39:33.260 ,0,1,1.,24.0,0.,24.0
1986-01-25 20:39:57.260 ,0,0,0.,24.0,0.,24.0
1986-01-25 20:40:21.260 ,1,1,0.,24.0,0.,24.0
1986-01-25 20:40:45.260 ,1,0,0.,24.0,0.,24.0
1986-01-25 20:41:09.260 ,2,1,0.,24.0,0.,24.0
1986-01-25 20:41:33.260 ,2,0,0.,24.0,0.,24.0
1986-01-25 20:41:57.260 ,3,1,0.,24.0,0.,24.0
1986-01-25 20:42:21.260 ,3,0,0.,24.0,0.,24.0
1986-01-25 20:42:45.260 ,4,1,0.,24.0,0.,24.0
1986-01-25 20:43:09.260 ,4,0,0.,24.0,0.,24.0
1986-01-25 20:43:33.260 ,5,1,0.,24.0,0.,24.0
1986-01-25 20:43:57.260 ,5,0,0.,24.0,0.,24.0
1986-01-25 20:44:21.260 ,6,1,0.,24.0,0.,24.0
1986-01-25 20:44:45.260 ,6,0,0.,24.0,0.,24.0
1986-01-25 20:45:09.260 ,7,1,0.,24.0,0.,24.0
1986-01-25 20:45:33.260 ,7,0,0.,24.0,0.,24.0
1986-01-25 20:45:57.260 ,7,1,1.,24.0,0.,24.0
1986-01-25 20:46:21.260 ,7,0,0.,24.0,0.,24.0
1986-01-25 20:46:45.260 ,6,1,0.,24.0,0.,24.0
1986-01-25 20:47:09.260 ,6,0,0.,24.0,0.,24.0
1986-01-25 20:47:33.260 ,5,1,0.,24.0,0.,24.0
1986-01-25 20:47:57.260 ,5,0,0.,24.0,0.,24.0
1986-01-25 20:48:21.260 ,4,1,0.,24.0,0.,24.0
1986-01-25 20:48:45.260 ,4,0,1.,24.0,0.,24.0
1986-01-25 20:49:09.260 ,3,1,0.,24.0,0.,24.0
1986-01-25 20:49:33.260 ,3,0,0.,24.0,0.,24.0
1986-01-25 20:49:57.250 ,2,1,0.,24.0,0.,24.0
1986-01-25 20:50:21.250 ,2,0,0.,24.0,0.,24.0
1986-01-25 20:50:45.250 ,1,1,0.,24.0,0.,24.0
1986-01-25 20:51:09.250 ,1,0,1.,24.0,0.,24.0
1986-01-25 20:51:33.250 ,0,1,0.,24.0,0.,24.0
1986-01-25 20:51:57.250 ,0,0,0.,24.0,0.,24.0
1986-01-25 20:52:21.250 ,0,1,0.,24.0,0.,24.0
1986-01-25 20:52:45.250 ,0,0,0.,24.0,0.,24.0
1986-01-25 20:53:09.250 ,1,1,0.,24.0,0.,24.0
1986-01-25 20:53:33.250 ,1,0,0.,24.0,0.,24.0
1986-01-25 20:53:57.250 ,2,1,0.,24.0,0.,24.0
1986-01-25 20:54:21.250 ,2,0,0.,24.0,0.,24.0
1986-01-25 20:54:45.250 ,3,1,0.,24.0,0.,24.0
1986-01-25 20:55:09.250 ,3,0,0.,24.0,0.,24.0
1986-01-25 20:55:33.250 ,4,1,0.,24.0,0.,24.0
1986-01-25 20:55:57.250 ,4,0,0.,24.0,0.,24.0
1986-01-25 20:56:21.250 ,5,1,0.,24.0,0.,24.0
1986-01-25 20:56:45.250 ,5,0,0.,24.0,0.,24.0
1986-01-25 20:57:09.250 ,6,1,0.,24.0,0.,24.0
1986-01-25 20:57:33.250 ,6,0,0.,24.0,0.,24.0
1986-01-25 20:57:57.250 ,7,1,1.,24.0,0.,24.0
1986-01-25 20:58:21.250 ,7,0,0.,24.0,0.,24.0
1986-01-25 20:58:45.250 ,7,1,0.,24.0,0.,24.0
1986-01-25 20:59:09.250 ,7,0,0.,24.0,0.,24.0
1986-01-25 20:59:33.250 ,6,1,0.,24.0,0.,24.0
1986-01-25 20:59:57.250 ,6,0,0.,24.0,0.,24.0
1986-01-25 21:00:21.250 ,5,1,0.,24.0,0.,24.0
